User: anonymous   Login
Location: Caltech
(34.1382°N, 118.1253°W)
Time: 00:28:42
(UTC-07:00)
Language:

Aureole 3 Rocket - Orbit

View from above orbital plane
View from above orbital plane
View from above satellite
View from above satellite

Ground track
Ground track

The orbit data is extracted from the following two-line orbital elements,

1 12849U 81094B   15238.67200556 +.00000564 +00000-0 +49479-4 0  9998
2 12849 082.4950 313.3606 0906926 030.2114 334.8252 13.49388238652839
Epoch (UTC): 26 August 2015 16:07:41
Eccentricity: 0.0906926
inclination: 82.4950°
perigee height: 398 km
apogee height: 1750 km
right ascension of ascending node: 313.3606°
argument of perigee: 30.2114°
revolutions per day: 13.49388238
mean anomaly at epoch: 334.8252°
orbit number at epoch: 65283

The dashed part of the orbit path shows where the satellite is in the earth's shadow,  

DLR